Orbital Elements at Epoch 2459200.5 (2020-Dec-17.0) TDB
Reference: JPL 27 (heliocentric ecliptic J2000)
Element | Value | Uncertainty (1-sigma) | Units |
e | .07343029449779288 | 3.6879e-08 | |
a | 2.587968360160722 | 1.0354e-08 | au |
q | 2.39793308132315 | 9.4115e-08 | au |
i | 1.844157159335712 | 4.0981e-06 | deg |
node | 215.2465076441767 | 0.00013147 | deg |
peri | 266.7424498891275 | 0.00013528 | deg |
M | 171.9583472973025 | 3.1316e-05 | deg |
tp | 2458474.130446151135 (2018-Dec-21.63044615) | 0.00013145 | TDB |
period | 1520.676626029038 4.16 | 9.126e-06 2.499e-08 | d yr |
n | .2367367222182356 | 1.4207e-09 | deg/d |
Q | 2.778003638998294 | 1.1114e-08 | au |
|
| | Orbit Determination Parameters
Additional Information
|